This is the latest recevied weather packets stored in our database for station/object N6ZHV-13. If no packets are shown the sender has not sent any weather packets the latest 10 day(s).
| Time | Temp. | Humidity | Pressure | Rain* | Wind** | Luminosity | Snow |
|---|---|---|---|---|---|---|---|
| 1788649320 | 30° C | 32% | 1008.3 hPa | 0 mm | - | - | - |
| 1788649020 | 29.44° C | 32% | 1008.3 hPa | 0 mm | - | - | - |
| 1788648721 | 29.44° C | 32% | 1008.4 hPa | 0 mm | - | - | - |
| 1788648420 | 30° C | 32% | 1008.4 hPa | 0 mm | - | - | - |
| 1788648121 | 29.44° C | 32% | 1008.4 hPa | 0 mm | - | - | - |
| 1788647821 | 29.44° C | 32% | 1008.4 hPa | 0 mm | - | - | - |
| 1788647521 | 30° C | 33% | 1008.4 hPa | 0 mm | - | - | - |
| 1788647221 | 30° C | 34% | 1008.4 hPa | 0 mm | - | - | - |
| 1788646945 | 30° C | 34% | 1008.4 hPa | 0 mm | - | - | - |
| 1788646621 | 30° C | 33% | 1008.4 hPa | 0 mm | - | - | - |
| 1788646321 | 30° C | 34% | 1008.3 hPa | 0 mm | - | - | - |
| 1788646021 | 30° C | 35% | 1008.4 hPa | 0 mm | - | - | - |
| 1788645721 | 30° C | 35% | 1008.5 hPa | 0 mm | - | - | - |
| 1788645421 | 30° C | 34% | 1008.4 hPa | 0 mm | - | - | - |
| 1788645121 | 30° C | 34% | 1008.5 hPa | 0 mm | - | - | - |
| 1788644821 | 31.11° C | 29% | 1008.4 hPa | 0 mm | - | - | - |
| 1788644521 | 31.11° C | 31% | 1008.5 hPa | 0 mm | - | - | - |
| 1788644221 | 31.11° C | 32% | 1008.5 hPa | 0 mm | - | - | - |
| 1788643921 | 31.11° C | 24% | 1008.6 hPa | 0 mm | - | - | - |
| 1788643621 | 31.11° C | 23% | 1008.6 hPa | 0 mm | - | - | - |
| 1788643321 | 31.67° C | 24% | 1008.6 hPa | 0 mm | - | - | - |
| 1788643021 | 31.11° C | 24% | 1008.6 hPa | 0 mm | - | - | - |
| 1788642721 | 31.11° C | 25% | 1008.7 hPa | 0 mm | - | - | - |
| 1788642421 | 30.56° C | 29% | 1008.7 hPa | 0 mm | - | - | - |
| 1788642121 | 30.56° C | 32% | 1008.8 hPa | 0 mm | - | - | - |
* Rain latest hour (hover to see other rain measurements)
** Current wind speed in m/s (hover to see current wind gust speed)